Time,TemperatureF,DewpointF,PressureIn,WindDirection,WindDirectionDegrees,WindSpeedMPH,WindSpeedGustMPH,Humidity,HourlyPrecipIn,Conditions,Clouds,dailyrainin,SoftwareType,DateUTC
2013-07-27 00:00:00,59.4,53.6,30.00,NE,34,2.0,10.0,81,0.00,,OVC080,0.00,VWS V14.01,2013-07-27 05:00:00,
2013-07-27 00:01:00,59.3,53.5,30.00,NNE,21,2.0,3.0,81,0.00,,SCT065,0.00,VWS V14.01,2013-07-27 05:01:00,
2013-07-27 00:06:00,59.2,53.4,30.00,NNE,23,4.0,9.0,81,0.00,,SCT065,0.00,VWS V14.01,2013-07-27 05:06:00,
2013-07-27 00:11:00,58.9,53.4,30.00,NNW,337,6.0,9.0,82,0.00,,SCT065,0.00,VWS V14.01,2013-07-27 05:11:00,
2013-07-27 00:16:00,58.6,52.8,30.00,NNW,341,2.0,13.0,81,0.00,,SCT065,0.00,VWS V14.01,2013-07-27 05:16:00,
2013-07-27 00:21:00,58.4,52.9,30.00,NE,50,0.0,13.0,82,0.00,,SCT065,0.00,VWS V14.01,2013-07-27 05:21:00,
2013-07-27 00:26:00,58.2,52.7,30.00,North,1,4.0,13.0,82,0.00,,SCT065,0.00,VWS V14.01,2013-07-27 05:26:00,
2013-07-27 00:30:00,57.9,52.5,30.00,ENE,65,1.0,13.0,82,0.00,,OVC080,0.00,VWS V14.01,2013-07-27 05:30:00,
2013-07-27 00:31:00,57.9,52.5,30.00,NNW,346,4.0,4.0,82,0.00,,SCT065,0.00,VWS V14.01,2013-07-27 05:31:00,
2013-07-27 00:36:00,57.7,52.6,30.00,NE,36,2.0,9.0,83,0.00,,SCT065,0.00,VWS V14.01,2013-07-27 05:36:00,
2013-07-27 00:41:00,57.5,52.4,30.00,NNE,19,1.0,9.0,83,0.00,,SCT065,0.00,VWS V14.01,2013-07-27 05:41:00,
2013-07-27 00:46:00,57.3,52.5,30.00,North,353,6.0,9.0,84,0.00,,SCT065,0.00,VWS V14.01,2013-07-27 05:46:00,
2013-07-27 00:51:00,57.1,52.3,30.00,NNW,341,3.0,9.0,84,0.00,,SCT065,0.00,VWS V14.01,2013-07-27 05:51:00,
2013-07-27 00:56:00,56.9,52.1,30.00,North,349,0.0,10.0,84,0.00,,SCT065,0.00,VWS V14.01,2013-07-27 05:56:00,
2013-07-27 01:00:00,56.7,51.9,30.00,North,5,0.0,10.0,84,0.00,,OVC080,0.00,VWS V14.01,2013-07-27 06:00:00,
2013-07-27 01:01:00,56.7,51.9,30.00,North,5,4.0,4.0,84,0.00,,CLR,0.00,VWS V14.01,2013-07-27 06:01:00,
2013-07-27 01:06:00,56.5,52.0,30.00,NNE,20,0.0,4.0,85,0.00,,CLR,0.00,VWS V14.01,2013-07-27 06:06:00,
2013-07-27 01:11:00,56.5,52.0,30.00,North,8,0.0,5.0,85,0.00,,CLR,0.00,VWS V14.01,2013-07-27 06:11:00,
2013-07-27 01:16:00,56.4,52.3,30.00,NNE,29,0.0,8.0,86,0.00,,CLR,0.00,VWS V14.01,2013-07-27 06:16:00,
2013-07-27 01:21:00,56.5,52.7,30.00,NNW,330,2.0,8.0,87,0.00,,CLR,0.00,VWS V14.01,2013-07-27 06:21:00,
2013-07-27 01:26:00,56.4,52.6,30.00,NNE,27,2.0,8.0,87,0.00,,CLR,0.00,VWS V14.01,2013-07-27 06:26:00,
2013-07-27 01:30:00,56.2,52.4,30.00,NNW,341,1.0,8.0,87,0.00,,OVC080,0.00,VWS V14.01,2013-07-27 06:30:00,
2013-07-27 01:31:00,56.2,52.4,30.00,North,357,1.0,2.0,87,0.00,,CLR,0.00,VWS V14.01,2013-07-27 06:31:00,
2013-07-27 01:36:00,56.1,52.3,30.00,NE,36,0.0,5.0,87,0.00,,CLR,0.00,VWS V14.01,2013-07-27 06:36:00,
2013-07-27 01:41:00,55.9,52.1,30.00,NNW,346,2.0,7.0,87,0.00,,CLR,0.00,VWS V14.01,2013-07-27 06:41:00,
2013-07-27 01:46:00,55.8,52.3,30.00,NNW,333,2.0,7.0,88,0.00,,CLR,0.00,VWS V14.01,2013-07-27 06:46:00,
2013-07-27 01:51:00,55.7,52.2,30.00,NNE,15,2.0,7.0,88,0.00,,CLR,0.00,VWS V14.01,2013-07-27 06:51:00,
2013-07-27 01:56:00,55.5,52.0,30.00,NNE,21,1.0,7.0,88,0.00,,CLR,0.00,VWS V14.01,2013-07-27 06:56:00,
2013-07-27 02:00:00,55.5,52.0,30.00,NE,34,0.0,7.0,88,0.00,,OVC080,0.00,VWS V14.01,2013-07-27 07:00:00,
2013-07-27 02:01:00,55.4,51.9,30.00,North,9,0.0,0.0,88,0.00,,CLR,0.00,VWS V14.01,2013-07-27 07:01:00,
2013-07-27 02:06:00,55.3,52.1,30.00,NW,315,2.0,7.0,89,0.00,,CLR,0.00,VWS V14.01,2013-07-27 07:06:00,
2013-07-27 02:11:00,55.3,52.1,30.00,North,9,0.0,7.0,89,0.00,,CLR,0.00,VWS V14.01,2013-07-27 07:11:00,
2013-07-27 02:16:00,55.1,51.9,30.00,NNE,19,2.0,7.0,89,0.00,,CLR,0.00,VWS V14.01,2013-07-27 07:16:00,
2013-07-27 02:21:00,55.1,51.9,30.00,NNW,348,0.0,7.0,89,0.00,,CLR,0.00,VWS V14.01,2013-07-27 07:21:00,
2013-07-27 02:26:00,55.0,51.8,30.00,ENE,68,0.0,7.0,89,0.00,,CLR,0.00,VWS V14.01,2013-07-27 07:26:00,
2013-07-27 02:30:00,54.9,51.7,30.00,NNE,23,2.0,7.0,89,0.00,,OVC080,0.00,VWS V14.01,2013-07-27 07:30:00,
2013-07-27 02:31:00,54.9,51.7,30.00,NNE,32,2.0,3.0,89,0.00,,CLR,0.00,VWS V14.01,2013-07-27 07:31:00,
2013-07-27 02:36:00,54.9,51.7,30.00,WSW,238,2.0,3.0,89,0.00,,CLR,0.00,VWS V14.01,2013-07-27 07:36:00,
2013-07-27 02:41:00,54.8,51.6,30.00,North,11,0.0,3.0,89,0.00,,CLR,0.00,VWS V14.01,2013-07-27 07:41:00,
2013-07-27 02:46:00,54.7,51.5,30.00,NNE,15,3.0,3.0,89,0.00,,CLR,0.00,VWS V14.01,2013-07-27 07:46:00,
2013-07-27 02:51:00,54.7,51.5,30.00,NE,34,1.0,4.0,89,0.00,,CLR,0.00,VWS V14.01,2013-07-27 07:51:00,
2013-07-27 02:56:00,54.6,51.4,30.00,NNW,345,4.0,5.0,89,0.00,,CLR,0.00,VWS V14.01,2013-07-27 07:56:00,
2013-07-27 03:00:00,54.4,51.2,30.00,North,351,2.0,5.0,89,0.00,,OVC080,0.00,VWS V14.01,2013-07-27 08:00:00,
2013-07-27 03:01:00,54.4,51.2,30.00,North,1,1.0,2.0,89,0.00,,CLR,0.00,VWS V14.01,2013-07-27 08:01:00,
2013-07-27 03:06:00,54.2,51.0,30.00,NNE,19,2.0,4.0,89,0.00,,CLR,0.00,VWS V14.01,2013-07-27 08:06:00,
2013-07-27 03:11:00,54.1,50.9,30.00,NNW,346,2.0,5.0,89,0.00,,CLR,0.00,VWS V14.01,2013-07-27 08:11:00,
2013-07-27 03:16:00,53.9,50.7,30.00,North,349,2.0,5.0,89,0.00,,CLR,0.00,VWS V14.01,2013-07-27 08:16:00,
2013-07-27 03:21:00,53.8,50.6,30.00,NNW,347,4.0,5.0,89,0.00,,CLR,0.00,VWS V14.01,2013-07-27 08:21:00,
2013-07-27 03:25:00,53.7,50.5,30.00,NNE,27,0.0,5.0,89,0.00,,CLR,0.00,VWS V14.01,2013-07-27 08:25:00,
2013-07-27 03:30:00,53.6,50.4,30.00,North,360,1.0,1.0,89,0.00,,CLR,0.00,VWS V14.01,2013-07-27 08:30:00,
2013-07-27 03:35:00,53.5,50.3,29.99,North,350,0.0,5.0,89,0.00,,CLR,0.00,VWS V14.01,2013-07-27 08:35:00,
2013-07-27 03:40:00,53.4,50.2,29.99,North,357,0.0,5.0,89,0.00,,CLR,0.00,VWS V14.01,2013-07-27 08:40:00,
2013-07-27 03:45:00,53.3,50.2,29.99,NNE,18,0.0,5.0,89,0.00,,CLR,0.00,VWS V14.01,2013-07-27 08:45:00,
2013-07-27 03:50:00,53.2,50.3,29.99,NE,46,0.0,6.0,90,0.00,,CLR,0.00,VWS V14.01,2013-07-27 08:50:00,
2013-07-27 03:55:00,53.1,50.2,29.99,NNE,19,3.0,6.0,90,0.00,,CLR,0.00,VWS V14.01,2013-07-27 08:55:00,
2013-07-27 04:00:00,53.1,50.2,29.99,NNE,17,1.0,6.0,90,0.00,,CLR,0.00,VWS V14.01,2013-07-27 09:00:00,
2013-07-27 04:05:00,52.9,50.0,29.99,NNE,29,0.0,4.0,90,0.00,,CLR,0.00,VWS V14.01,2013-07-27 09:05:00,
2013-07-27 04:10:00,52.8,50.0,29.99,NE,34,5.0,5.0,90,0.00,,CLR,0.00,VWS V14.01,2013-07-27 09:10:00,
2013-07-27 04:15:00,52.8,50.0,30.00,NNE,33,0.0,6.0,90,0.00,,CLR,0.00,VWS V14.01,2013-07-27 09:15:00,
2013-07-27 04:20:00,52.7,49.8,30.00,NNW,336,0.0,6.0,90,0.00,,CLR,0.00,VWS V14.01,2013-07-27 09:20:00,
2013-07-27 04:25:00,52.5,50.0,30.00,NE,36,0.0,6.0,91,0.00,,CLR,0.00,VWS V14.01,2013-07-27 09:25:00,
2013-07-27 04:30:00,52.4,49.8,30.00,North,11,3.0,8.0,91,0.00,,CLR,0.00,VWS V14.01,2013-07-27 09:30:00,
2013-07-27 04:35:00,52.3,49.8,30.00,North,354,2.0,4.0,91,0.00,,CLR,0.00,VWS V14.01,2013-07-27 09:35:00,
2013-07-27 04:40:00,52.1,49.6,30.00,NNE,12,2.0,6.0,91,0.00,,CLR,0.00,VWS V14.01,2013-07-27 09:40:00,
2013-07-27 04:45:00,52.0,49.5,30.00,NNE,32,1.0,7.0,91,0.00,,CLR,0.00,VWS V14.01,2013-07-27 09:45:00,
2013-07-27 04:50:00,52.0,49.5,30.00,North,359,5.0,7.0,91,0.00,,CLR,0.00,VWS V14.01,2013-07-27 09:50:00,
2013-07-27 04:55:00,51.8,49.3,30.00,North,354,0.0,7.0,91,0.00,,CLR,0.00,VWS V14.01,2013-07-27 09:55:00,
2013-07-27 05:00:00,51.7,49.2,30.01,NE,54,1.0,7.0,91,0.00,,SCT024,0.00,VWS V14.01,2013-07-27 10:00:00,
2013-07-27 05:05:00,51.6,49.4,30.00,NNE,19,0.0,3.0,92,0.00,,SCT024,0.00,VWS V14.01,2013-07-27 10:05:00,
2013-07-27 05:10:00,51.5,49.3,30.01,NNE,19,3.0,5.0,92,0.00,,BKN024,0.00,VWS V14.01,2013-07-27 10:10:00,
2013-07-27 05:15:00,51.4,49.2,30.01,NNE,27,2.0,5.0,92,0.00,,BKN024,0.00,VWS V14.01,2013-07-27 10:15:00,
2013-07-27 05:20:00,51.4,49.2,30.01,NNE,16,2.0,5.0,92,0.00,,BKN024,0.00,VWS V14.01,2013-07-27 10:20:00,
2013-07-27 05:25:00,51.3,49.3,30.01,ENE,66,1.0,5.0,93,0.00,,SCT024,0.00,VWS V14.01,2013-07-27 10:25:00,
2013-07-27 05:30:00,51.3,49.3,30.01,NNE,26,5.0,12.0,93,0.00,,SCT024,0.00,VWS V14.01,2013-07-27 10:30:00,
2013-07-27 05:35:00,51.2,49.0,30.02,NE,40,0.0,6.0,92,0.00,,SCT024,0.00,VWS V14.01,2013-07-27 10:35:00,
2013-07-27 05:40:00,51.0,48.8,30.02,North,4,1.0,6.0,92,0.00,,SCT024,0.00,VWS V14.01,2013-07-27 10:40:00,
2013-07-27 05:45:00,50.9,49.0,30.02,NNE,12,2.0,6.0,93,0.00,,SCT024,0.00,VWS V14.01,2013-07-27 10:45:00,
2013-07-27 05:50:00,50.8,48.8,30.02,North,356,2.0,8.0,93,0.00,,BKN026,0.00,VWS V14.01,2013-07-27 10:50:00,
2013-07-27 05:55:00,50.8,48.8,30.02,NNE,16,2.0,8.0,93,0.00,,BKN026,0.00,VWS V14.01,2013-07-27 10:55:00,
2013-07-27 06:00:00,50.6,48.7,30.02,North,9,3.0,8.0,93,0.00,,BKN024,0.00,VWS V14.01,2013-07-27 11:00:00,
2013-07-27 06:05:00,50.5,48.6,30.02,NE,56,2.0,10.0,93,0.00,,BKN024,0.00,VWS V14.01,2013-07-27 11:05:00,
2013-07-27 06:10:00,50.5,48.8,30.02,North,9,0.0,10.0,94,0.00,,BKN024,0.00,VWS V14.01,2013-07-27 11:10:00,
2013-07-27 06:15:00,50.4,48.7,30.02,NE,42,5.0,10.0,94,0.00,,BKN024,0.00,VWS V14.01,2013-07-27 11:15:00,
2013-07-27 06:20:00,50.4,48.7,30.02,NNE,16,0.0,10.0,94,0.00,,BKN024,0.00,VWS V14.01,2013-07-27 11:20:00,
2013-07-27 06:25:00,50.4,48.7,30.02,NNW,339,2.0,10.0,94,0.00,,FEW024,0.00,VWS V14.01,2013-07-27 11:25:00,
2013-07-27 06:30:00,50.4,48.7,30.02,NNE,25,4.0,10.0,94,0.00,,FEW024,0.00,VWS V14.01,2013-07-27 11:30:00,
2013-07-27 06:35:00,50.4,48.7,30.02,NNE,18,1.0,4.0,94,0.00,,FEW024,0.00,VWS V14.01,2013-07-27 11:35:00,
2013-07-27 06:40:00,50.4,48.5,30.01,NNW,343,3.0,8.0,93,0.00,,FEW024,0.00,VWS V14.01,2013-07-27 11:40:00,
2013-07-27 06:45:00,50.5,48.6,30.01,North,356,3.0,8.0,93,0.00,,FEW024,0.00,VWS V14.01,2013-07-27 11:45:00,
2013-07-27 06:50:00,50.5,48.6,30.01,NNW,339,4.0,8.0,93,0.00,,FEW024,0.00,VWS V14.01,2013-07-27 11:50:00,
2013-07-27 06:55:00,50.6,48.7,30.01,North,11,3.0,8.0,93,0.00,,FEW024,0.00,VWS V14.01,2013-07-27 11:55:00,
2013-07-27 07:00:00,50.7,48.8,30.01,NNW,333,2.0,8.0,93,0.00,,CLR,0.00,VWS V14.01,2013-07-27 12:00:00,
2013-07-27 07:05:00,50.8,48.8,30.02,NNE,23,3.0,6.0,93,0.00,,CLR,0.00,VWS V14.01,2013-07-27 12:05:00,
2013-07-27 07:10:00,50.9,48.7,30.01,NNE,13,2.0,6.0,92,0.00,,CLR,0.00,VWS V14.01,2013-07-27 12:10:00,
2013-07-27 07:15:00,51.1,49.2,30.02,NNW,338,5.0,6.0,93,0.00,,CLR,0.00,VWS V14.01,2013-07-27 12:15:00,
2013-07-27 07:20:00,51.2,49.0,30.01,NNE,16,2.0,9.0,92,0.00,,CLR,0.00,VWS V14.01,2013-07-27 12:20:00,
2013-07-27 07:25:00,51.3,49.1,30.02,NNW,343,8.0,9.0,92,0.00,,CLR,0.00,VWS V14.01,2013-07-27 12:25:00,
2013-07-27 07:30:00,51.4,49.2,30.02,North,5,0.0,9.0,92,0.00,,CLR,0.00,VWS V14.01,2013-07-27 12:30:00,
2013-07-27 07:35:00,51.7,49.5,30.02,ENE,65,1.0,8.0,92,0.00,,CLR,0.00,VWS V14.01,2013-07-27 12:35:00,
2013-07-27 07:40:00,51.8,49.3,30.02,North,7,2.0,8.0,91,0.00,,CLR,0.00,VWS V14.01,2013-07-27 12:40:00,
2013-07-27 07:45:00,51.9,49.4,30.02,NNE,19,2.0,8.0,91,0.00,,CLR,0.00,VWS V14.01,2013-07-27 12:45:00,
2013-07-27 07:50:00,52.1,49.6,30.02,North,4,3.0,8.0,91,0.00,,CLR,0.00,VWS V14.01,2013-07-27 12:50:00,
2013-07-27 07:55:00,52.4,49.6,30.02,North,355,1.0,9.0,90,0.00,,CLR,0.00,VWS V14.01,2013-07-27 12:55:00,
2013-07-27 08:00:00,53.0,50.2,30.02,NE,49,2.0,9.0,90,0.00,,FEW007,0.00,VWS V14.01,2013-07-27 13:00:00,
2013-07-27 08:05:00,53.4,49.9,30.02,NNW,331,9.0,9.0,88,0.00,,FEW007,0.00,VWS V14.01,2013-07-27 13:05:00,
2013-07-27 08:10:00,53.6,49.8,30.03,NNW,339,0.0,9.0,87,0.00,,FEW007,0.00,VWS V14.01,2013-07-27 13:10:00,
2013-07-27 08:15:00,54.0,50.8,30.02,NW,321,0.0,9.0,89,0.00,,FEW007,0.00,VWS V14.01,2013-07-27 13:15:00,
2013-07-27 08:20:00,53.8,49.7,30.02,NNW,331,4.0,9.0,86,0.00,,FEW007,0.00,VWS V14.01,2013-07-27 13:20:00,
2013-07-27 08:25:00,53.8,50.0,30.02,ENE,73,1.0,9.0,87,0.00,,FEW007,0.00,VWS V14.01,2013-07-27 13:25:00,
2013-07-27 08:30:00,54.6,51.1,30.02,ENE,64,0.0,9.0,88,0.00,,BKN016,0.00,VWS V14.01,2013-07-27 13:30:00,
2013-07-27 08:35:00,54.9,50.5,30.03,NNW,348,2.0,7.0,85,0.00,,BKN016,0.00,VWS V14.01,2013-07-27 13:35:00,
2013-07-27 08:40:00,54.7,50.0,30.03,North,353,3.0,7.0,84,0.00,,BKN016,0.00,VWS V14.01,2013-07-27 13:40:00,
2013-07-27 08:45:00,54.1,49.7,30.03,ENE,74,2.0,7.0,85,0.00,,BKN018,0.00,VWS V14.01,2013-07-27 13:45:00,
2013-07-27 08:50:00,54.0,49.3,30.03,NNE,16,5.0,7.0,84,0.00,,BKN018,0.00,VWS V14.01,2013-07-27 13:50:00,
2013-07-27 08:55:00,54.5,49.8,30.03,NNE,21,4.0,7.0,84,0.00,,BKN018,0.00,VWS V14.01,2013-07-27 13:55:00,
2013-07-27 09:00:00,54.7,49.3,30.03,NNW,340,1.0,7.0,82,0.00,,BKN014,0.00,VWS V14.01,2013-07-27 14:00:00,
2013-07-27 09:05:00,55.5,50.4,30.03,NNW,342,2.0,8.0,83,0.00,,BKN014,0.00,VWS V14.01,2013-07-27 14:05:00,
2013-07-27 09:10:00,55.9,49.5,30.03,NNW,338,3.0,11.0,79,0.00,,BKN014,0.00,VWS V14.01,2013-07-27 14:10:00,
2013-07-27 09:15:00,56.0,50.3,30.02,NNW,331,2.0,11.0,81,0.00,,SCT022,0.00,VWS V14.01,2013-07-27 14:15:00,
2013-07-27 09:20:00,55.5,49.1,30.02,North,11,3.0,11.0,79,0.00,,SCT022,0.00,VWS V14.01,2013-07-27 14:20:00,
2013-07-27 09:25:00,55.7,48.6,30.02,NNE,20,2.0,11.0,77,0.00,,SCT022,0.00,VWS V14.01,2013-07-27 14:25:00,
2013-07-27 09:30:00,55.9,48.5,30.02,North,356,4.0,11.0,76,0.00,,SCT022,0.00,VWS V14.01,2013-07-27 14:30:00,
2013-07-27 09:35:00,56.3,49.2,30.02,NE,34,1.0,10.0,77,0.00,,SCT022,0.00,VWS V14.01,2013-07-27 14:35:00,
2013-07-27 09:40:00,56.5,48.7,30.02,NNE,25,2.0,10.0,75,0.00,,SCT022,0.00,VWS V14.01,2013-07-27 14:40:00,
2013-07-27 09:45:00,56.5,48.0,30.02,NNW,342,4.0,10.0,73,0.00,,SCT022,0.00,VWS V14.01,2013-07-27 14:45:00,
2013-07-27 09:50:00,56.8,47.1,30.02,NNE,32,3.0,10.0,70,0.00,,SCT022,0.00,VWS V14.01,2013-07-27 14:50:00,
2013-07-27 09:55:00,57.2,47.9,30.02,NNE,18,2.0,10.0,71,0.00,,SCT022,0.00,VWS V14.01,2013-07-27 14:55:00,
2013-07-27 10:00:00,57.2,47.5,30.02,NNE,32,7.0,13.0,70,0.00,,BKN040,0.00,VWS V14.01,2013-07-27 15:00:00,
2013-07-27 10:05:00,57.8,47.7,30.02,NNE,22,4.0,13.0,69,0.00,,BKN040,0.00,VWS V14.01,2013-07-27 15:05:00,
2013-07-27 10:10:00,57.8,46.5,30.02,NE,42,3.0,13.0,66,0.00,,BKN040,0.00,VWS V14.01,2013-07-27 15:10:00,
2013-07-27 10:15:00,57.3,46.0,30.01,North,359,4.0,13.0,66,0.00,,BKN040,0.00,VWS V14.01,2013-07-27 15:15:00,
2013-07-27 10:20:00,57.0,46.6,30.02,NNE,26,11.0,13.0,68,0.00,,BKN040,0.00,VWS V14.01,2013-07-27 15:20:00,
2013-07-27 10:25:00,56.9,47.2,30.02,NNW,340,3.0,13.0,70,0.00,,BKN040,0.00,VWS V14.01,2013-07-27 15:25:00,
2013-07-27 10:30:00,56.6,45.8,30.02,NNW,331,7.0,14.0,67,0.00,,BKN040,0.00,VWS V14.01,2013-07-27 15:30:00,
2013-07-27 10:35:00,56.1,46.8,30.02,NNE,19,3.0,13.0,71,0.00,,BKN040,0.00,VWS V14.01,2013-07-27 15:35:00,
2013-07-27 10:40:00,55.8,46.2,30.01,NE,53,3.0,13.0,70,0.00,,BKN040,0.00,VWS V14.01,2013-07-27 15:40:00,
2013-07-27 10:45:00,55.8,46.5,30.01,NNE,25,1.0,13.0,71,0.00,,BKN040,0.00,VWS V14.01,2013-07-27 15:45:00,
2013-07-27 10:50:00,56.1,46.5,30.01,North,4,4.0,13.0,70,0.00,,BKN040,0.00,VWS V14.01,2013-07-27 15:50:00,
2013-07-27 10:55:00,56.2,46.9,30.01,NNE,20,1.0,13.0,71,0.00,,BKN040,0.00,VWS V14.01,2013-07-27 15:55:00,
2013-07-27 11:00:00,56.7,48.2,30.01,North,6,3.0,13.0,73,0.00,,OVC047,0.00,VWS V14.01,2013-07-27 16:00:00,
2013-07-27 11:05:00,56.7,46.7,30.01,NNE,25,4.0,9.0,69,0.00,,OVC047,0.00,VWS V14.01,2013-07-27 16:05:00,
2013-07-27 11:10:00,56.7,47.8,30.01,NE,52,0.0,11.0,72,0.00,,OVC047,0.00,VWS V14.01,2013-07-27 16:10:00,
2013-07-27 11:15:00,57.3,47.2,30.01,ENE,75,4.0,11.0,69,0.00,,OVC047,0.00,VWS V14.01,2013-07-27 16:15:00,
2013-07-27 11:20:00,57.4,46.2,30.01,NNW,335,2.0,11.0,66,0.00,,OVC047,0.00,VWS V14.01,2013-07-27 16:20:00,
2013-07-27 11:25:00,57.5,45.0,30.01,ENE,69,2.0,11.0,63,0.00,,OVC047,0.00,VWS V14.01,2013-07-27 16:25:00,
2013-07-27 11:30:00,57.6,46.3,30.01,NNE,13,0.0,11.0,66,0.00,,OVC047,0.00,VWS V14.01,2013-07-27 16:30:00,
2013-07-27 11:35:00,58.5,46.0,30.01,NW,305,3.0,8.0,63,0.00,,OVC047,0.00,VWS V14.01,2013-07-27 16:35:00,
2013-07-27 11:40:00,59.1,46.5,30.01,WNW,295,0.0,9.0,63,0.00,,OVC047,0.00,VWS V14.01,2013-07-27 16:40:00,
2013-07-27 11:45:00,59.7,47.5,30.01,NNE,23,1.0,9.0,64,0.00,,OVC047,0.00,VWS V14.01,2013-07-27 16:45:00,
2013-07-27 11:50:00,59.4,47.7,30.01,NW,319,3.0,9.0,65,0.00,,OVC047,0.00,VWS V14.01,2013-07-27 16:50:00,
2013-07-27 11:55:00,59.3,48.0,30.01,NNE,32,2.0,9.0,66,0.00,,OVC047,0.00,VWS V14.01,2013-07-27 16:55:00,
2013-07-27 12:00:00,59.6,47.8,30.01,WNW,300,1.0,9.0,65,0.00,,OVC043,0.00,VWS V14.01,2013-07-27 17:00:00,
2013-07-27 12:05:00,59.6,46.6,30.01,NE,47,6.0,8.0,62,0.00,,OVC043,0.00,VWS V14.01,2013-07-27 17:05:00,
2013-07-27 12:10:00,59.6,45.7,30.00,NNW,345,1.0,8.0,60,0.00,,OVC043,0.00,VWS V14.01,2013-07-27 17:10:00,
2013-07-27 12:15:00,60.1,48.3,30.00,East,82,1.0,8.0,65,0.00,,OVC043,0.00,VWS V14.01,2013-07-27 17:15:00,
2013-07-27 12:20:00,60.7,47.6,30.00,NW,319,2.0,10.0,62,0.00,,OVC043,0.00,VWS V14.01,2013-07-27 17:20:00,
2013-07-27 12:25:00,60.1,46.6,30.00,North,351,2.0,10.0,61,0.00,,OVC043,0.00,VWS V14.01,2013-07-27 17:25:00,
2013-07-27 12:30:00,60.1,47.9,30.00,West,270,1.0,10.0,64,0.00,,OVC043,0.00,VWS V14.01,2013-07-27 17:30:00,
2013-07-27 12:35:00,60.8,47.3,30.00,NNE,13,5.0,7.0,61,0.00,,OVC043,0.00,VWS V14.01,2013-07-27 17:35:00,
2013-07-27 12:40:00,61.2,47.2,30.00,NNW,333,5.0,7.0,60,0.00,,OVC043,0.00,VWS V14.01,2013-07-27 17:40:00,
2013-07-27 12:45:00,61.5,47.9,30.00,NNE,30,1.0,7.0,61,0.00,,OVC043,0.00,VWS V14.01,2013-07-27 17:45:00,
2013-07-27 12:50:00,61.1,46.7,30.00,NNE,25,3.0,7.0,59,0.00,,OVC043,0.00,VWS V14.01,2013-07-27 17:50:00,
2013-07-27 12:55:00,61.0,47.0,29.99,NNE,19,3.0,10.0,60,0.00,,OVC043,0.00,VWS V14.01,2013-07-27 17:55:00,
2013-07-27 13:00:00,61.7,46.8,29.99,NNW,335,7.0,12.0,58,0.00,,OVC043,0.00,VWS V14.01,2013-07-27 18:00:00,
2013-07-27 13:05:00,61.3,46.0,29.99,NNE,23,1.0,9.0,57,0.00,,BKN055,0.00,VWS V14.01,2013-07-27 18:05:00,
2013-07-27 13:10:00,61.6,47.6,29.99,NE,53,1.0,9.0,60,0.00,,BKN055,0.00,VWS V14.01,2013-07-27 18:10:00,
2013-07-27 13:15:00,61.3,46.0,30.00,NE,43,4.0,10.0,57,0.00,,BKN055,0.00,VWS V14.01,2013-07-27 18:15:00,
2013-07-27 13:20:00,61.2,47.7,29.99,North,356,4.0,10.0,61,0.00,,BKN055,0.00,VWS V14.01,2013-07-27 18:20:00,
2013-07-27 13:25:00,62.3,47.8,29.99,NNW,335,4.0,10.0,59,0.00,,BKN055,0.00,VWS V14.01,2013-07-27 18:25:00,
2013-07-27 13:30:00,62.8,48.3,29.99,NNW,337,1.0,10.0,59,0.00,,BKN055,0.00,VWS V14.01,2013-07-27 18:30:00,
2013-07-27 13:35:00,63.6,49.5,29.99,North,8,5.0,8.0,60,0.00,,BKN055,0.00,VWS V14.01,2013-07-27 18:35:00,
2013-07-27 13:40:00,63.7,47.2,29.99,NNW,348,3.0,8.0,55,0.00,,BKN055,0.00,VWS V14.01,2013-07-27 18:40:00,
2013-07-27 13:45:00,64.0,48.9,29.98,NNE,26,4.0,8.0,58,0.00,,BKN055,0.00,VWS V14.01,2013-07-27 18:45:00,
2013-07-27 13:50:00,63.4,47.5,29.98,NNW,343,1.0,8.0,56,0.00,,BKN055,0.00,VWS V14.01,2013-07-27 18:50:00,
2013-07-27 13:55:00,62.6,47.2,29.98,NE,39,2.0,9.0,57,0.00,,BKN055,0.00,VWS V14.01,2013-07-27 18:55:00,
2013-07-27 14:00:00,62.6,46.7,29.98,NNE,20,1.0,9.0,56,0.00,,BKN060,0.00,VWS V14.01,2013-07-27 19:00:00,
2013-07-27 14:05:00,62.4,47.0,29.98,North,359,2.0,6.0,57,0.00,,BKN060,0.00,VWS V14.01,2013-07-27 19:05:00,
2013-07-27 14:10:00,62.6,49.0,29.98,NNE,28,2.0,6.0,61,0.00,,BKN060,0.00,VWS V14.01,2013-07-27 19:10:00,
2013-07-27 14:15:00,63.5,47.1,29.98,NW,326,3.0,6.0,55,0.00,,BKN060,0.00,VWS V14.01,2013-07-27 19:15:00,
2013-07-27 14:20:00,64.1,48.6,29.98,NNW,337,4.0,6.0,57,0.00,,BKN060,0.00,VWS V14.01,2013-07-27 19:20:00,
2013-07-27 14:25:00,64.3,46.3,29.98,NNE,16,2.0,8.0,52,0.00,,BKN060,0.00,VWS V14.01,2013-07-27 19:25:00,
2013-07-27 14:30:00,64.4,47.9,29.98,North,11,7.0,8.0,55,0.00,,BKN060,0.00,VWS V14.01,2013-07-27 19:30:00,
2013-07-27 14:35:00,65.5,50.3,29.97,NW,326,1.0,6.0,58,0.00,,BKN060,0.00,VWS V14.01,2013-07-27 19:35:00,
2013-07-27 14:40:00,65.7,48.1,29.97,SSE,155,2.0,6.0,53,0.00,,BKN060,0.00,VWS V14.01,2013-07-27 19:40:00,
2013-07-27 14:45:00,64.9,48.8,29.97,NNW,348,4.0,6.0,56,0.00,,BKN060,0.00,VWS V14.01,2013-07-27 19:45:00,
2013-07-27 14:50:00,64.6,47.6,29.97,NE,36,5.0,7.0,54,0.00,,BKN060,0.00,VWS V14.01,2013-07-27 19:50:00,
2013-07-27 14:55:00,65.2,48.2,29.97,ESE,106,1.0,7.0,54,0.00,,BKN060,0.00,VWS V14.01,2013-07-27 19:55:00,
2013-07-27 15:00:00,66.1,48.0,29.96,North,1,4.0,7.0,52,0.00,,BKN065,0.00,VWS V14.01,2013-07-27 20:00:00,
2013-07-27 15:05:00,65.7,47.6,29.97,NNW,330,4.0,7.0,52,0.00,,BKN065,0.00,VWS V14.01,2013-07-27 20:05:00,
2013-07-27 15:10:00,65.2,49.6,29.96,NE,38,3.0,8.0,57,0.00,,BKN065,0.00,VWS V14.01,2013-07-27 20:10:00,
2013-07-27 15:15:00,65.6,48.5,29.96,NNW,332,2.0,8.0,54,0.00,,BKN065,0.00,VWS V14.01,2013-07-27 20:15:00,
2013-07-27 15:20:00,66.0,48.4,29.96,West,278,4.0,8.0,53,0.00,,BKN065,0.00,VWS V14.01,2013-07-27 20:20:00,
2013-07-27 15:25:00,66.5,49.8,29.96,WNW,294,6.0,8.0,55,0.00,,BKN065,0.00,VWS V14.01,2013-07-27 20:25:00,
2013-07-27 15:30:00,66.7,47.5,29.96,NNE,32,2.0,8.0,50,0.00,,BKN065,0.00,VWS V14.01,2013-07-27 20:30:00,
2013-07-27 15:35:00,65.7,47.1,29.95,WNW,298,1.0,6.0,51,0.00,,BKN065,0.00,VWS V14.01,2013-07-27 20:35:00,
2013-07-27 15:40:00,65.2,47.2,29.95,NNE,13,3.0,6.0,52,0.00,,BKN065,0.00,VWS V14.01,2013-07-27 20:40:00,
2013-07-27 15:45:00,65.0,47.5,29.95,North,357,1.0,6.0,53,0.00,,BKN065,0.00,VWS V14.01,2013-07-27 20:45:00,
2013-07-27 15:50:00,64.8,47.8,29.95,North,351,2.0,6.0,54,0.00,,BKN065,0.00,VWS V14.01,2013-07-27 20:50:00,
2013-07-27 15:55:00,65.0,48.5,29.95,North,7,1.0,8.0,55,0.00,,BKN065,0.00,VWS V14.01,2013-07-27 20:55:00,
2013-07-27 16:00:00,65.5,48.4,29.95,NNW,345,3.0,8.0,54,0.00,,OVC070,0.00,VWS V14.01,2013-07-27 21:00:00,
2013-07-27 16:05:00,66.1,48.0,29.95,NNW,335,2.0,8.0,52,0.00,,OVC070,0.00,VWS V14.01,2013-07-27 21:05:00,
2013-07-27 16:10:00,65.8,47.7,29.95,East,79,3.0,8.0,52,0.00,,OVC070,0.00,VWS V14.01,2013-07-27 21:10:00,
2013-07-27 16:15:00,65.8,47.7,29.95,NNE,22,6.0,9.0,52,0.00,,OVC070,0.00,VWS V14.01,2013-07-27 21:15:00,
2013-07-27 16:20:00,65.4,46.3,29.95,North,9,7.0,10.0,50,0.00,,OVC070,0.00,VWS V14.01,2013-07-27 21:20:00,
2013-07-27 16:25:00,65.1,47.6,29.95,NE,47,2.0,10.0,53,0.00,,OVC070,0.00,VWS V14.01,2013-07-27 21:25:00,
2013-07-27 16:30:00,64.9,47.4,29.95,North,5,3.0,10.0,53,0.00,,OVC070,0.00,VWS V14.01,2013-07-27 21:30:00,
2013-07-27 16:35:00,65.0,48.5,29.95,NNE,23,5.0,8.0,55,0.00,,OVC070,0.00,VWS V14.01,2013-07-27 21:35:00,
2013-07-27 16:40:00,65.0,47.5,29.95,NNE,19,4.0,8.0,53,0.00,,OVC070,0.00,VWS V14.01,2013-07-27 21:40:00,
2013-07-27 16:45:00,65.0,48.5,29.95,North,11,4.0,8.0,55,0.00,,OVC070,0.00,VWS V14.01,2013-07-27 21:45:00,
2013-07-27 16:50:00,65.1,48.5,29.94,NNW,340,4.0,8.0,55,0.00,,OVC070,0.00,VWS V14.01,2013-07-27 21:50:00,
2013-07-27 16:55:00,65.2,48.6,29.94,North,356,4.0,13.0,55,0.00,,OVC070,0.00,VWS V14.01,2013-07-27 21:55:00,
2013-07-27 17:00:00,65.1,47.6,29.94,NNE,16,2.0,13.0,53,0.00,,OVC075,0.00,VWS V14.01,2013-07-27 22:00:00,
2013-07-27 17:05:00,65.1,47.6,29.94,ENE,71,1.0,7.0,53,0.00,,OVC075,0.00,VWS V14.01,2013-07-27 22:05:00,
2013-07-27 17:10:00,65.1,49.0,29.94,NE,41,1.0,7.0,56,0.00,,OVC075,0.00,VWS V14.01,2013-07-27 22:10:00,
2013-07-27 17:15:00,64.8,48.8,29.94,WNW,302,3.0,7.0,56,0.00,,OVC075,0.00,VWS V14.01,2013-07-27 22:15:00,
2013-07-27 17:20:00,64.2,48.2,29.94,NNE,23,2.0,8.0,56,0.00,,OVC075,0.00,VWS V14.01,2013-07-27 22:20:00,
2013-07-27 17:25:00,63.8,47.8,29.94,North,351,6.0,8.0,56,0.00,,OVC075,0.00,VWS V14.01,2013-07-27 22:25:00,
2013-07-27 17:30:00,63.6,49.0,29.94,NE,36,0.0,8.0,59,0.00,,OVC075,0.00,VWS V14.01,2013-07-27 22:30:00,
2013-07-27 17:35:00,63.4,49.7,29.94,NE,41,0.0,2.0,61,0.00,,OVC075,0.00,VWS V14.01,2013-07-27 22:35:00,
2013-07-27 17:40:00,63.3,50.9,29.94,North,4,0.0,3.0,64,0.00,,OVC075,0.00,VWS V14.01,2013-07-27 22:40:00,
2013-07-27 17:45:00,62.9,49.7,29.94,North,356,2.0,5.0,62,0.00,,OVC075,0.00,VWS V14.01,2013-07-27 22:45:00,
2013-07-27 17:50:00,62.5,50.2,29.94,North,8,0.0,5.0,64,0.00,,OVC075,0.00,VWS V14.01,2013-07-27 22:50:00,
2013-07-27 17:55:00,62.6,49.8,29.94,North,8,0.0,5.0,63,0.00,,OVC075,0.00,VWS V14.01,2013-07-27 22:55:00,
2013-07-27 18:00:00,62.6,50.3,29.94,North,351,1.0,5.0,64,0.00,,OVC075,0.00,VWS V14.01,2013-07-27 23:00:00,
2013-07-27 18:05:00,62.7,50.8,29.93,North,349,0.0,2.0,65,0.00,,OVC075,0.00,VWS V14.01,2013-07-27 23:05:00,
2013-07-27 18:10:00,62.7,49.9,29.94,North,356,3.0,3.0,63,0.00,,OVC075,0.00,VWS V14.01,2013-07-27 23:10:00,
2013-07-27 18:15:00,62.9,50.1,29.93,NNE,16,0.0,5.0,63,0.00,,OVC075,0.00,VWS V14.01,2013-07-27 23:15:00,
2013-07-27 18:20:00,63.1,50.7,29.94,NE,34,0.0,6.0,64,0.00,,OVC075,0.00,VWS V14.01,2013-07-27 23:20:00,
2013-07-27 18:25:00,63.2,51.2,29.94,NW,323,1.0,6.0,65,0.00,,OVC075,0.00,VWS V14.01,2013-07-27 23:25:00,
2013-07-27 18:30:00,63.1,50.7,29.93,ENE,65,1.0,6.0,64,0.00,,OVC075,0.00,VWS V14.01,2013-07-27 23:30:00,
2013-07-27 18:35:00,62.7,50.4,29.94,North,4,0.0,3.0,64,0.00,,OVC075,0.00,VWS V14.01,2013-07-27 23:35:00,
2013-07-27 18:40:00,62.4,50.1,29.93,North,5,0.0,3.0,64,0.00,,OVC075,0.00,VWS V14.01,2013-07-27 23:40:00,
2013-07-27 18:45:00,62.1,49.8,29.93,NNW,342,1.0,6.0,64,0.00,,OVC075,0.00,VWS V14.01,2013-07-27 23:45:00,
2013-07-27 18:50:00,61.9,50.0,29.94,North,359,0.0,6.0,65,0.00,,OVC075,0.00,VWS V14.01,2013-07-27 23:50:00,
2013-07-27 18:55:00,61.7,49.8,29.94,NNW,335,0.0,6.0,65,0.00,,OVC075,0.00,VWS V14.01,2013-07-27 23:55:00,
2013-07-27 19:00:00,61.6,50.5,29.94,NW,324,0.0,6.0,67,0.00,,OVC070,0.00,VWS V14.01,2013-07-28 00:00:00,
2013-07-27 19:05:00,61.4,50.0,29.93,NNE,16,1.0,1.0,66,0.00,,OVC070,0.00,VWS V14.01,2013-07-28 00:05:00,
2013-07-27 19:10:00,61.4,50.0,29.93,SE,137,1.0,2.0,66,0.00,,OVC070,0.00,VWS V14.01,2013-07-28 00:10:00,
2013-07-27 19:15:00,61.5,50.0,29.93,NNW,348,0.0,2.0,66,0.00,,OVC070,0.00,VWS V14.01,2013-07-28 00:15:00,
2013-07-27 19:20:00,61.5,50.5,29.93,NNW,333,0.0,5.0,67,0.00,,OVC070,0.00,VWS V14.01,2013-07-28 00:20:00,
2013-07-27 19:25:00,61.5,50.8,29.93,NNW,333,0.0,5.0,68,0.00,,OVC070,0.00,VWS V14.01,2013-07-28 00:25:00,
2013-07-27 19:30:00,61.4,50.0,29.93,NNW,345,0.0,5.0,66,0.00,,OVC070,0.00,VWS V14.01,2013-07-28 00:30:00,
2013-07-27 19:35:00,61.3,49.9,29.93,NNE,23,0.0,3.0,66,0.00,,OVC070,0.00,VWS V14.01,2013-07-28 00:35:00,
2013-07-27 19:40:00,61.3,49.9,29.93,North,6,1.0,3.0,66,0.00,,OVC070,0.00,VWS V14.01,2013-07-28 00:40:00,
2013-07-27 19:45:00,61.1,50.1,29.93,NNW,341,0.0,3.0,67,0.00,,OVC070,0.00,VWS V14.01,2013-07-28 00:45:00,
2013-07-27 19:50:00,61.1,50.1,29.93,NNW,346,0.0,3.0,67,0.00,,OVC070,0.00,VWS V14.01,2013-07-28 00:50:00,
2013-07-27 19:55:00,61.0,50.8,29.93,NNW,346,0.0,3.0,69,0.00,,OVC070,0.00,VWS V14.01,2013-07-28 00:55:00,
2013-07-27 20:00:00,60.9,50.3,29.93,NNW,346,0.0,3.0,68,0.00,,OVC080,0.00,VWS V14.01,2013-07-28 01:00:00,
2013-07-27 20:05:00,60.8,51.0,29.93,NNW,346,0.0,0.0,70,0.00,,OVC080,0.00,VWS V14.01,2013-07-28 01:05:00,
2013-07-27 20:10:00,60.7,50.9,29.93,NNW,346,0.0,0.0,70,0.00,,OVC080,0.00,VWS V14.01,2013-07-28 01:10:00,
2013-07-27 20:16:00,60.5,51.1,29.93,NNW,346,0.0,0.0,71,0.00,,OVC080,0.00,VWS V14.01,2013-07-28 01:16:00,
2013-07-27 20:21:00,60.3,50.1,29.92,NNW,346,0.0,0.0,69,0.00,,OVC080,0.00,VWS V14.01,2013-07-28 01:21:00,
2013-07-27 20:26:00,60.3,50.1,29.93,NNW,346,0.0,0.0,69,0.00,,OVC080,0.00,VWS V14.01,2013-07-28 01:26:00,
2013-07-27 20:30:00,61.4,50.0,29.93,NNW,345,0.0,5.0,66,0.00,,,0.00,VWS V14.01,2013-07-28 01:30:00,
2013-07-27 20:31:00,60.3,50.5,29.93,NNW,346,0.0,0.0,70,0.00,,OVC080,0.00,VWS V14.01,2013-07-28 01:31:00,
2013-07-27 20:36:00,60.1,50.3,29.92,NNW,346,0.0,0.0,70,0.00,,OVC080,0.00,VWS V14.01,2013-07-28 01:36:00,
2013-07-27 20:41:00,60.0,50.2,29.92,NNW,346,0.0,0.0,70,0.00,,OVC080,0.00,VWS V14.01,2013-07-28 01:41:00,
2013-07-27 20:46:00,60.0,51.0,29.92,NW,309,0.0,0.0,72,0.00,,OVC080,0.00,VWS V14.01,2013-07-28 01:46:00,
2013-07-27 20:51:00,60.2,51.5,29.92,SW,224,1.0,1.0,73,0.00,,OVC080,0.00,VWS V14.01,2013-07-28 01:51:00,
2013-07-27 20:56:00,60.2,52.3,29.92,SW,235,0.0,1.0,75,0.00,,OVC080,0.00,VWS V14.01,2013-07-28 01:56:00,
2013-07-27 21:00:00,60.9,50.7,29.93,NNW,346,0.0,3.0,69,0.00,,,0.00,VWS V14.01,2013-07-28 02:00:00,
2013-07-27 21:01:00,60.1,52.2,29.92,WSW,250,0.0,1.0,75,0.00,,OVC080,0.00,VWS V14.01,2013-07-28 02:01:00,
2013-07-27 21:06:00,60.0,52.4,29.92,SW,228,2.0,4.0,76,0.00,,OVC080,0.00,VWS V14.01,2013-07-28 02:06:00,
2013-07-27 21:11:00,59.9,53.0,29.92,WSW,252,2.0,4.0,78,0.00,,OVC080,0.00,VWS V14.01,2013-07-28 02:11:00,
2013-07-27 21:16:00,59.7,52.8,29.92,WSW,239,2.0,4.0,78,0.00,,OVC080,0.00,VWS V14.01,2013-07-28 02:16:00,
2013-07-27 21:21:00,59.7,52.8,29.92,West,263,3.0,4.0,78,0.00,,OVC080,0.00,VWS V14.01,2013-07-28 02:21:00,
2013-07-27 21:26:00,59.6,52.7,29.92,WSW,253,1.0,4.0,78,0.00,,OVC080,0.00,VWS V14.01,2013-07-28 02:26:00,
2013-07-27 21:30:00,60.3,50.5,29.93,NNW,346,0.0,0.0,70,0.00,,,0.00,VWS V14.01,2013-07-28 02:30:00,
2013-07-27 21:31:00,59.6,52.7,29.92,West,260,3.0,4.0,78,0.00,,OVC080,0.00,VWS V14.01,2013-07-28 02:31:00,
2013-07-27 21:36:00,59.6,52.7,29.92,WSW,250,2.0,4.0,78,0.00,,OVC080,0.00,VWS V14.01,2013-07-28 02:36:00,
2013-07-27 21:41:00,59.5,53.0,29.92,WSW,256,1.0,4.0,79,0.00,,OVC080,0.00,VWS V14.01,2013-07-28 02:41:00,
2013-07-27 21:46:00,59.4,53.2,29.92,West,264,2.0,5.0,80,0.00,,OVC080,0.00,VWS V14.01,2013-07-28 02:46:00,
2013-07-27 21:51:00,59.3,52.8,29.92,West,259,2.0,5.0,79,0.00,,OVC080,0.00,VWS V14.01,2013-07-28 02:51:00,
2013-07-27 21:56:00,59.3,52.8,29.92,WSW,252,2.0,5.0,79,0.00,,OVC080,0.00,VWS V14.01,2013-07-28 02:56:00,
2013-07-27 22:00:00,60.1,52.2,29.92,WSW,251,0.0,1.0,75,0.00,,,0.00,VWS V14.01,2013-07-28 03:00:00,
2013-07-27 22:01:00,59.3,52.8,29.92,WSW,248,4.0,4.0,79,0.00,,OVC075,0.00,VWS V14.01,2013-07-28 03:01:00,
2013-07-27 22:06:00,59.3,52.5,29.92,West,259,2.0,4.0,78,0.00,,OVC075,0.00,VWS V14.01,2013-07-28 03:06:00,
2013-07-27 22:11:00,59.5,52.3,29.92,West,267,2.0,4.0,77,0.00,,OVC075,0.00,VWS V14.01,2013-07-28 03:11:00,
2013-07-27 22:16:00,59.6,52.4,29.92,West,271,5.0,5.0,77,0.00,,OVC075,0.00,VWS V14.01,2013-07-28 03:16:00,
2013-07-27 22:21:00,59.7,52.1,29.92,West,264,2.0,5.0,76,0.00,,OVC075,0.00,VWS V14.01,2013-07-28 03:21:00,
2013-07-27 22:26:00,59.7,52.1,29.92,WSW,249,5.0,6.0,76,0.00,,OVC075,0.00,VWS V14.01,2013-07-28 03:26:00,
2013-07-27 22:30:00,59.6,52.7,29.92,WSW,238,2.0,4.0,78,0.00,,,0.00,VWS V14.01,2013-07-28 03:30:00,
2013-07-27 22:31:00,59.9,52.0,29.92,West,261,3.0,3.0,75,0.00,,OVC075,0.00,VWS V14.01,2013-07-28 03:31:00,
2013-07-27 22:36:00,60.0,52.1,29.92,West,263,2.0,5.0,75,0.00,,OVC075,0.00,VWS V14.01,2013-07-28 03:36:00,
2013-07-27 22:41:00,60.0,52.1,29.92,West,278,3.0,6.0,75,0.00,,OVC075,0.00,VWS V14.01,2013-07-28 03:41:00,
2013-07-27 22:46:00,60.0,52.1,29.92,West,271,4.0,6.0,75,0.00,,OVC075,0.00,VWS V14.01,2013-07-28 03:46:00,
2013-07-27 22:51:00,60.1,51.8,29.92,WSW,256,4.0,7.0,74,0.00,,OVC075,0.00,VWS V14.01,2013-07-28 03:51:00,
2013-07-27 22:56:00,60.5,51.1,29.92,West,270,3.0,11.0,71,0.00,,OVC075,0.00,VWS V14.01,2013-07-28 03:56:00,
2013-07-27 23:00:00,59.3,52.8,29.92,WSW,242,2.0,5.0,79,0.00,,,0.00,VWS V14.01,2013-07-28 04:00:00,
2013-07-27 23:01:00,61.1,50.5,29.92,West,276,5.0,5.0,68,0.00,,OVC075,0.00,VWS V14.01,2013-07-28 04:01:00,
2013-07-27 23:02:00,61.2,50.6,29.92,NW,309,1.0,5.0,68,0.00,,OVC075,0.00,VWS V14.01,2013-07-28 04:02:00,
2013-07-27 23:07:00,61.6,50.5,29.92,West,278,4.0,7.0,67,0.00,,OVC075,0.00,VWS V14.01,2013-07-28 04:07:00,
2013-07-27 23:12:00,61.8,50.3,29.92,WSW,247,6.0,9.0,66,0.00,,OVC075,0.00,VWS V14.01,2013-07-28 04:12:00,
2013-07-27 23:17:00,61.7,50.6,29.91,West,276,5.0,9.0,67,0.00,,OVC075,0.00,VWS V14.01,2013-07-28 04:17:00,
2013-07-27 23:22:00,61.6,50.5,29.91,WNW,302,1.0,9.0,67,0.00,,OVC075,0.00,VWS V14.01,2013-07-28 04:22:00,
2013-07-27 23:27:00,61.5,50.5,29.92,West,262,2.0,9.0,67,0.00,,OVC075,0.00,VWS V14.01,2013-07-28 04:27:00,
2013-07-27 23:30:00,59.9,52.0,29.92,West,266,3.0,6.0,75,0.00,,,0.00,VWS V14.01,2013-07-28 04:30:00,
2013-07-27 23:32:00,61.5,50.5,29.91,WNW,290,2.0,8.0,67,0.00,,OVC075,0.00,VWS V14.01,2013-07-28 04:32:00,
2013-07-27 23:37:00,61.5,50.0,29.91,West,271,4.0,9.0,66,0.00,,OVC075,0.00,VWS V14.01,2013-07-28 04:37:00,
2013-07-27 23:42:00,61.4,50.0,29.92,West,274,3.0,9.0,66,0.00,,OVC075,0.00,VWS V14.01,2013-07-28 04:42:00,
2013-07-27 23:47:00,61.2,50.2,29.92,WNW,293,4.0,9.0,67,0.00,,OVC075,0.00,VWS V14.01,2013-07-28 04:47:00,
2013-07-27 23:52:00,61.0,50.0,29.92,West,267,7.0,11.0,67,0.00,,OVC075,0.00,VWS V14.01,2013-07-28 04:52:00,
2013-07-27 23:57:00,60.8,49.8,29.91,West,275,3.0,11.0,67,0.00,,OVC075,0.00,VWS V14.01,2013-07-28 04:57:00,